Santa Monica, CA

9:53 AM PST on February 22, 2017 (GMT -0800)
Santa Monica Municipal

Weather History for KSMO - February, 2013

Change the Weather History Date:

Monday, February 18, 2013

  Actual Average Record
Temperature  
Mean Temperature 57 °F -  
Max Temperature 61 °F 68 °F 83 °F (1965)
Min Temperature 53 °F 48 °F 37 °F (1942)
Degree Days  
Heating Degree Days 8    
Growing Degree Days 7 (Base 50)    
Moisture  
Dew Point 45 °F    
Average Humidity 67    
Maximum Humidity 75    
Minimum Humidity 52    
Precipitation  
Precipitation 0.00 in - - ()
Sea Level Pressure  
Sea Level Pressure 30.02 in    
Wind  
Wind Speed 5 mph (South)    
Max Wind Speed 10 mph    
Max Gust Speed -    
Visibility 10 miles    
Events      
Averages and records for this station are not official NWS values.
T = Trace of Precipitation, MM = Missing Value Source: NWS Daily Summary

Daily Weather History Graph

Daily Weather History Graph

Search for Another Location

Airport or City:

Trip Planner

Search our weather history database for the weather conditions in past years. The results will help you decide how hot, cold, wet, or windy it might be!

Date:

Astronomy

Feb. 18, 2013 Rise Set
Actual Time 6:34 AM PST 5:40 PM PST
Civil Twilight 6:09 AM PST 6:06 PM PST
Nautical Twilight 5:40 AM PST 6:35 PM PST
Astronomical Twilight 5:11 AM PST 7:04 PM PST
Moon 11:38 AM PST (2/18) 1:11 AM PST (2/18)
Length of Visible Light 11h 56m
Length of Day
11h 05m
First Quarter, 59% of the Moon is Illuminated
Feb 18
First Quarter
Feb 25
Full
Mar 4
Last Quarter
Mar 11
New
Mar 19
First Quarter

Hourly Weather History & Observations

Time (PST) Temp. Dew Point Humidity Pressure Visibility Wind Dir Wind Speed Gust Speed Precip Events Conditions
12:51 AM 55.0 °F 46.0 °F 72% 30.03 in 10.0 mi ESE 3.5 mph - N/A   Overcast
1:51 AM 54.0 °F 46.0 °F 75% 30.02 in 10.0 mi East 4.6 mph - N/A   Overcast
2:51 AM 54.0 °F 46.0 °F 75% 30.01 in 10.0 mi ENE 4.6 mph - N/A   Overcast
3:51 AM 54.0 °F 45.0 °F 72% 30.02 in 10.0 mi ESE 4.6 mph - N/A   Overcast
4:51 AM 54.0 °F 45.0 °F 72% 30.04 in 10.0 mi ESE 5.8 mph - N/A   Overcast
5:51 AM 54.0 °F 45.0 °F 72% 30.05 in 10.0 mi Variable 3.5 mph - N/A   Overcast
6:51 AM 54.0 °F 45.0 °F 72% 30.06 in 10.0 mi Calm Calm - N/A   Overcast
7:51 AM 54.0 °F 44.1 °F 69% 30.06 in 10.0 mi ENE 5.8 mph - N/A   Overcast
8:51 AM 55.0 °F 44.1 °F 67% 30.07 in 10.0 mi Variable 4.6 mph - N/A   Overcast
9:51 AM 55.9 °F 43.0 °F 62% 30.06 in 10.0 mi East 4.6 mph - N/A   Mostly Cloudy
10:51 AM 59.0 °F 44.1 °F 58% 30.07 in 10.0 mi Calm Calm - N/A   Scattered Clouds
10:58 AM 60.8 °F 44.6 °F 55% 30.07 in 10.0 mi SE 8.1 mph - N/A   Mostly Cloudy
11:21 AM 59.0 °F 42.8 °F 55% 30.06 in 10.0 mi ESE 6.9 mph - N/A   Partly Cloudy
11:51 AM 61.0 °F 43.0 °F 52% 30.04 in 10.0 mi South 8.1 mph - N/A   Clear
12:51 PM 60.1 °F 45.0 °F 57% 30.02 in 10.0 mi SW 10.4 mph - N/A   Clear
1:51 PM 57.9 °F 45.0 °F 62% 30.00 in 10.0 mi SW 8.1 mph - N/A   Clear
2:51 PM 59.0 °F 44.1 °F 58% 29.99 in 10.0 mi SW 8.1 mph - N/A   Clear
3:51 PM 57.0 °F 46.0 °F 67% 29.97 in 10.0 mi WSW 8.1 mph - N/A   Clear
4:51 PM 55.9 °F 46.0 °F 69% 29.97 in 10.0 mi SW 8.1 mph - N/A   Clear
5:51 PM 55.0 °F 45.0 °F 69% 29.96 in 10.0 mi SW 8.1 mph - N/A   Scattered Clouds
6:21 PM 53.6 °F 44.6 °F 72% 29.97 in 10.0 mi SW 6.9 mph - N/A   Mostly Cloudy
6:51 PM 54.0 °F 45.0 °F 72% 29.98 in 10.0 mi SW 5.8 mph - N/A   Overcast
7:51 PM 55.0 °F 44.1 °F 67% 29.99 in 10.0 mi SSW 5.8 mph - N/A   Overcast
8:51 PM 55.0 °F 44.1 °F 67% 30.00 in 10.0 mi SSW 4.6 mph - N/A   Overcast
9:42 PM 53.6 °F 44.6 °F 72% 30.01 in 10.0 mi SW 3.5 mph - N/A   Overcast
9:51 PM 54.0 °F 45.0 °F 72% 30.01 in 10.0 mi Variable 3.5 mph - N/A   Overcast
9:59 PM 55.4 °F 44.6 °F 67% 30.01 in 10.0 mi Calm Calm - N/A   Overcast
10:12 PM 55.4 °F 44.6 °F 67% 30.00 in 10.0 mi SSW 3.5 mph - N/A   Overcast
10:51 PM 54.0 °F 45.0 °F 72% 29.99 in 10.0 mi SSW 3.5 mph - N/A   Overcast
11:51 PM 54.0 °F 45.0 °F 72% 29.99 in 10.0 mi SW 4.6 mph - N/A   Overcast